Lid_Strength_Index
14 15 15 16 15 15 16 16 18 20 19 18 18 16 16 15 14 13 14 11 9 9 8 8 7 7 7 6 6 6 5 6 5 5 5 5 4 4
14 15 16 16 16 16 16 17 17 18 20 18 18 17 15 14 13 13 13 11 10 9 8 8 8 8 7 7 7 7 7 6 6 5 5 4 4 3
14 15 16 16 16 16 17 17 17 18 20 18 18 16 17 16 14 14 13 13 12 9 8 8 8 8 8 8 7 7 7 6 5 4 3 3 2 2
16 16 16 15 16 17 17 17 18 18 19 18 17 17 17 15 15 15 13 12 12 10 9 9 8 8 8 8 7 6 5 5 5 4 4 4 3 3
15 16 16 16 17 17 18 18 18 16 17 18 17 16 16 15 14 14 14 13 12 10 10 9 9 8 7 6 6 6 6 6 6 6 5 5 4 4
16 16 16 16 17 17 17 17 16 17 17 17 16 16 16 15 15 15 15 14 14 13 11 10 8 7 6 6 7 7 7 7 6 6 6 5 5 4
16 16 16 15 13 13 14 16 16 16 16 17 17 18 17 15 16 15 16 15 14 12 12 12 11 11 10 8 8 8 8 7 6 6 5 5 5 5
17 17 17 15 14 12 12 11 12 14 18 19 19 16 15 15 15 15 15 15 14 11 13 12 11 11 10 10 7 7 7 7 7 6 6 5 5 5
18 18 17 15 15 16 13 11 11 10 10 12 15 15 16 15 15 15 13 12 12 11 12 13 11 12 10 9 7 7 6 6 6 6 6 5 5 5
17 17 17 16 15 13 14 15 14 14 14 13 14 14 13 12 10 10 11 12 12 11 11 15 11 12 10 10 7 7 6 6 6 6 5 5 6 5
16 16 15 15 12 11 13 15 14 14 11 10 10 9 8 7 8 11 13 14 15 13 11 13 12 12 11 11 10 7 6 6 6 6 6 6 5 5
16 16 13 13 11 10 12 14 16 16 15 14 14 12 11 12 9 11 13 15 15 15 13 14 13 12 13 13 11 11 10 8 7 7 6 6 6 7
16 16 15 12 11 10 11 15 15 13 14 14 13 13 13 13 12 12 12 13 14 14 11 11 13 12 13 13 12 11 11 10 11 10 8 7 6 7
15 15 15 11 11 12 13 12 11 11 14 14 14 14 14 13 13 12 11 11 11 12 11 11 13 13 13 14 14 12 11 11 11 11 11 9 7 6
14 13 12 12 13 14 13 12 11 14 14 15 15 14 14 14 13 12 11 12 13 12 11 11 12 12 13 14 14 13 12 11 11 11 11 12 11 10
13 16 14 14 14 14 14 13 14 14 14 14 15 14 13 13 13 12 13 12 13 13 10 11 12 13 13 13 13 13 12 12 11 11 12 11 10 9
15 17 18 17 17 16 15 14 14 14 15 15 15 14 14 13 13 12 12 12 13 13 13 12 11 12 12 13 14 13 13 13 12 12 11 12 11 10
17 18 18 17 16 16 16 15 15 15 15 14 14 15 14 14 13 12 11 12 13 13 13 13 13 13 13 12 11 14 13 12 11 11 11 12 11 10
18 18 17 16 16 16 16 16 17 15 15 15 15 15 14 14 12 13 13 13 14 14 14 14 14 13 15 16 12 9 11 11 11 11 11 11 12 11
17 17 17 16 16 16 16 16 16 15 16 16 15 14 14 14 14 14 14 14 14 14 13 13 14 14 15 14 13 11 9 11 12 12 12 11 10 8
16 16 16 16 16 16 16 16 16 16 15 15 16 15 14 14 14 14 14 12 12 14 15 14 13 10 11 11 13 12 11 9 10 11 11 11 12 12
16 16 16 16 16 16 16 16 16 16 16 16 15 15 14 14 14 14 14 14 14 14 14 13 12 11 12 13 14 14 13 11 9 9 9 9 12 13
17 16 16 16 16 16 16 16 15 16 16 15 15 14 14 14 14 14 13 13 13 13 13 12 12 11 12 13 13 13 13 12 12 11 11 8 8 8